This demonstration page uses our WeatherBlox Daily Observations layout. Learn more.

Left ArrowRight Arrow

Hourly Observations for July 15, 2016

Temp ( °F °C ) Dew Point ( °F °C ) Humidity (%) Winds ( mph kmh ) Pressure ( in mb ) Visibility ( mi km ) Precip ( " mm )
12:15 am 00:15 Clear 67 19.7 62 16.6 82 82 SE 6 9 30.03 1017 10 16 N/A
12:35 am 00:35 Clear 66 18.7 61 16.1 85 85 SE 7 11 30.03 1017 10 16 N/A
12:55 am 00:55 Clear 64 18 60 15.6 86 86 SE 5 7 30.03 1017 10 16 N/A
1:15 am 01:15 Clear 66 19 61 15.9 82 82 S 6 9 30.03 1017 10 16 N/A
1:35 am 01:35 Clear 65 18.6 60 15.6 83 83 S 3 6 30.03 1017 10 16 N/A
1:55 am 01:55 Clear 65 18.6 60 15.7 83 83 S 5 7 30.03 1017 10 16 N/A
2:15 am 02:15 Clear 67 19.5 61 15.9 80 80 S 5 7 30.03 1017 10 16 N/A
2:35 am 02:35 Clear 65 18.2 60 15.3 83 83 SSE 3 6 30.03 1017 10 16 N/A
2:55 am 02:55 Clear 63 17.3 59 15.2 88 88 N N/A 30.03 1017 10 16 N/A
3:15 am 03:15 Clear 63 17 59 15 88 88 SSE 5 7 30.03 1017 10 16 N/A
3:35 am 03:35 Clear 61 16.1 58 14.4 90 90 SE 3 6 30.06 1018 10 16 N/A
3:55 am 03:55 Clear 63 17.1 60 15.4 90 90 SSE 5 7 30.03 1017 10 16 N/A
4:15 am 04:15 Clear 61 16.3 58 14.7 90 90 SE 5 7 30.06 1018 10 16 N/A
4:35 am 04:35 Clear 61 16 59 14.8 93 93 E 7 11 30.06 1018 10 16 N/A
4:55 am 04:55 Clear 61 16.3 59 15 92 92 N N/A 30.06 1018 10 16 N/A
5:15 am 05:15 Clear 61 16.2 59 15.1 93 93 E 3 6 30.06 1018 7 11 N/A
5:35 am 05:35 Clear 62 16.5 60 15.3 93 93 E 7 11 30.06 1018 10 16 N/A
5:55 am 05:55 Clear 62 16.9 60 15.4 91 91 NE 10 17 30.09 1019 10 16 N/A
6:15 am 06:15 Partly Cloudy 62 16.6 60 15.3 92 92 ENE 13 20 30.09 1019 7 11 N/A
6:35 am 06:35 Sunny with Thunderstorms 61 16.2 58 14.7 91 91 ENE 14 22 30.09 1019 10 16 N/A
6:55 am 06:55 Sunny with Thunderstorms 61 16 58 14.2 89 89 E 15 24 30.09 1019 10 16 N/A
7:15 am 07:15 Partly Cloudy with Thunderstorms 60 15.8 57 13.7 87 87 ENE 9 15 30.09 1019 10 16 N/A
7:35 am 07:35 Mostly Cloudy with Nearby Thunderstorms 60 15.3 57 13.9 91 91 WNW 14 22 30.15 1021 7 11 0.04 1.02
7:55 am 07:55 Mostly Cloudy with Thunderstorms 60 15.3 56 13.6 90 90 E 13 20 30.09 1019 10 16 0.13 3.30
8:15 am 08:15 Mostly Cloudy with Rain 60 15.3 57 13.7 90 90 ESE 21 33 30.09 1019 10 16 0.02 0.51
8:35 am 08:35 Mostly Cloudy 59 15.1 57 13.8 92 92 SE 20 31 30.06 1018 10 16 0.03 0.76
8:55 am 08:55 Partly Cloudy 60 15.7 58 14.3 91 91 E 10 17 30.09 1019 10 16 0.04 1.02
9:15 am 09:15 Mostly Cloudy with Thunderstorms 61 16.2 57 14 87 87 N 21 33 30.18 1022 10 16 N/A
9:35 am 09:35 Cloudy 60 15.6 56 13.3 86 86 NNE 23 37 30.21 1023 10 16 N/A
9:55 am 09:55 Cloudy with Thunderstorms 58 14.5 56 13.1 91 91 NE 20 31 30.24 1024 7 11 0.02 0.51
10:15 am 10:15 Cloudy 59 15.1 57 13.8 92 92 NE 26 43 30.15 1021 10 16 0.01 0.25
10:35 am 10:35 Mostly Cloudy 59 15.2 56 13.6 90 90 ENE 24 39 30.15 1021 10 16 0.01 0.25
10:55 am 10:55 Cloudy 59 15.1 56 13.3 89 89 ENE 22 35 30.15 1021 10 16 0.01 0.25
11:15 am 11:15 Windy with Storms Likely 59 14.8 56 13.2 90 90 NE 21 33 30.15 1021 10 16 0.01 0.25
11:35 am 11:35 Cloudy with Thunderstorms 58 14.5 56 13.1 91 91 ENE 20 31 30.15 1021 3 4 0.17 4.32
11:55 am 11:55 Cloudy with Thunderstorms 58 14.2 56 13.1 93 93 ENE 6 9 30.21 1023 3 4 0.31 7.87
12:15 pm 12:15 Cloudy with Strong Thunderstorms 58 14.2 56 13.5 96 96 E 18 30 30.12 1020 2 2 0.33 8.38
12:35 pm 12:35 Cloudy 58 14.5 57 13.7 95 95 NNE 13 20 30.21 1023 10 16 0.34 8.64
12:55 pm 12:55 Cloudy with Heavy Rain 58 14.5 57 13.7 95 95 NNE 7 11 30.24 1024 2 3 0.50 12.70
1:15 pm 13:15 Cloudy with Nearby Thunderstorms 58 14.5 57 13.7 95 95 E 6 9 30.21 1023 4 6 0.09 2.29
1:35 pm 13:35 Cloudy with Rain 58 14.5 57 13.7 95 95 E 14 22 30.15 1021 10 16 0.12 3.05
1:55 pm 13:55 Cloudy with Thunderstorms 58 14.7 57 14 96 96 SE 14 22 30.12 1020 10 16 0.15 3.81
2:15 pm 14:15 Mostly Cloudy with Thunderstorms 60 15.7 59 14.9 95 95 N N/A 30.15 1021 10 16 0.02 0.51
2:35 pm 14:35 Sunny 62 16.6 60 15.4 93 93 SSE 12 19 30.09 1019 10 16 0.02 0.51
2:55 pm 14:55 Sunny 65 18.4 61 16.1 87 87 SE 14 22 30.06 1018 10 16 0.02 0.51
3:15 pm 15:15 Partly Cloudy with Nearby Thunderstorms 67 19.6 60 15.3 76 76 SSE 14 22 30.06 1018 10 16 N/A
3:35 pm 15:35 Mostly Cloudy with Thunderstorms 66 18.7 57 13.8 73 73 SSE 12 19 30.06 1018 10 16 N/A
3:55 pm 15:55 Partly Cloudy with Thunderstorms 65 18.4 60 15.5 83 83 S 9 15 30.06 1018 10 16 0.03 0.76
4:15 pm 16:15 Partly Cloudy 69 20.4 60 15.3 73 73 SE 10 17 30.00 1016 10 16 N/A
4:35 pm 16:35 Partly Cloudy 71 21.6 59 14.9 66 66 SE 12 19 30.00 1016 10 16 N/A
4:55 pm 16:55 Sunny 72 22 59 14.9 64 64 SSE 10 17 29.97 1015 10 16 N/A
5:15 pm 17:15 Sunny 73 23 59 15.2 62 62 S 16 26 29.97 1015 10 16 N/A
5:35 pm 17:35 Sunny 75 23.7 59 15.2 59 59 S 16 26 29.94 1014 10 16 N/A
5:55 pm 17:55 Partly Cloudy 75 23.7 58 14.7 57 57 S 16 26 29.94 1014 10 16 N/A
6:15 pm 18:15 Partly Cloudy 74 23.6 58 14.4 56 56 S 13 20 29.97 1015 10 16 N/A
6:35 pm 18:35 Sunny 74 23.6 58 14.2 56 56 S 7 11 29.91 1013 10 16 N/A
6:55 pm 18:55 Sunny 75 24 58 14.5 55 55 N N/A 29.91 1013 10 16 N/A
7:15 pm 19:15 Sunny 75 23.7 59 15.1 59 59 E 5 7 29.94 1014 10 16 N/A
7:35 pm 19:35 Sunny 74 23.2 62 16.4 66 66 ENE 6 9 29.97 1015 10 16 N/A
7:55 pm 19:55 Sunny 73 22.8 62 16.5 68 68 E 7 11 29.97 1015 10 16 N/A
8:15 pm 20:15 Sunny 70 21 62 16.6 76 76 ENE 8 13 30.00 1016 10 16 N/A
8:35 pm 20:35 Sunny 68 20.1 62 16.6 80 80 ENE 7 11 30.03 1017 10 16 N/A
8:55 pm 20:55 Sunny 66 19 62 16.7 87 87 ENE 6 9 30.03 1017 10 16 N/A
9:15 pm 21:15 Clear 65 18.5 61 16.3 87 87 ENE 7 11 30.03 1017 10 16 N/A
9:35 pm 21:35 Clear 64 17.6 61 16 90 90 ENE 7 11 30.03 1017 10 16 N/A
9:55 pm 21:55 Clear 63 17.3 60 15.8 91 91 ENE 5 7 30.03 1017 10 16 N/A
10:15 pm 22:15 Clear 63 17 60 15.6 92 92 ENE 5 7 30.03 1017 10 16 N/A
10:35 pm 22:35 Clear 62 16.7 60 15.5 93 93 ENE 6 9 30.06 1018 10 16 N/A
10:55 pm 22:55 Clear 62 16.6 60 15.5 93 93 E 6 9 30.06 1018 10 16 N/A
11:15 pm 23:15 Clear 62 16.5 59 15.2 92 92 E 6 9 30.06 1018 10 16 N/A
11:35 pm 23:35 Clear 62 16.5 60 15.3 93 93 E 6 9 30.06 1018 10 16 N/A
11:55 pm 23:55 Clear 61 16.2 59 15.1 93 93 ESE 7 11 30.06 1018 10 16 N/A

Powered by AerisWeather